Location: Altleiningen
(49.5078°N, 8.0741°E)
Time: 01:29:29
(UTC+00:00)

PSLV R/B - Pass Details

Date: 03 March 2021
Orbit: 567 x 598 km, 98.2° (Epoch: 16 April)

Event Time Altitude Azimuth Distance (km) Brightness Sun altitude
Rises 18:32:38 0° 12° (NNE) 2,812 7.4 -13.6°
Reaches altitude 10° 18:34:49 10° 9° (N) 1,903 6.5 -13.9°
Maximum altitude 18:38:54 67° 288° (WNW) 627 4.3 -14.6°
Drops below altitude 10° 18:42:55 10° 205° (SSW) 1,871 6.7 -15.2°
Sets 18:45:03 0° 203° (SSW) 2,761 7.6 -15.6°
